BAW593 ENBO-EKCH

Flight info

Callsign BAW593
Flight time 1h 30m
Altitude 32000
Route DISMU DCT SOMUB/N0454F330 DCT TUMGU DCT TOPLA L996 ERNOV
Aircraft B77W/H-SDE1E2E3FGHIJ2J3J4J5M1RWXY/LB1D1

Departure

Time 2026-04-25 17:58
Airport Bodø Airport (ENBO)

Arrival

Time 2026-04-25 19:28
Airport Copenhagen Kastrup Airport (EKCH)
Time Latitude Longitude Altitude Speed Heading
2026-04-25 17:34 67.26598 14.35642 77 ft 0 kts 258°
2026-04-25 17:46 67.26599 14.35643 77 ft 0 kts 258°
2026-04-25 17:47 67.26598 14.35643 77 ft 0 kts 258°
2026-04-25 17:49 67.26598 14.35633 77 ft 1 kts 258°
2026-04-25 17:49 67.26594 14.35584 78 ft 3 kts 258°
2026-04-25 17:49 67.26594 14.35482 78 ft 7 kts 294°
2026-04-25 17:50 67.26666 14.35422 75 ft 13 kts 351°
2026-04-25 17:50 67.26710 14.35546 72 ft 12 kts 74°
2026-04-25 17:50 67.26735 14.35839 69 ft 20 kts 77°
2026-04-25 17:50 67.26771 14.36242 68 ft 25 kts 78°
2026-04-25 17:51 67.26807 14.36698 70 ft 24 kts 78°
2026-04-25 17:51 67.26845 14.37139 70 ft 24 kts 77°
2026-04-25 17:51 67.26878 14.37539 72 ft 22 kts 77°
2026-04-25 17:51 67.26912 14.37940 70 ft 22 kts 77°
2026-04-25 17:52 67.26945 14.38340 67 ft 22 kts 78°
2026-04-25 17:52 67.26956 14.38479 66 ft 23 kts 78°
2026-04-25 17:52 67.27017 14.39173 64 ft 22 kts 76°
2026-04-25 17:52 67.27044 14.39541 68 ft 12 kts 79°
2026-04-25 17:53 67.27057 14.39708 70 ft 8 kts 78°
2026-04-25 17:53 67.27077 14.39761 70 ft 0 kts 349°
2026-04-25 17:53 67.27080 14.39760 70 ft 0 kts 349°
2026-04-25 17:53 67.27085 14.39758 70 ft 0 kts 349°
2026-04-25 17:54 67.27085 14.39757 70 ft 0 kts 349°
2026-04-25 17:55 67.27087 14.39757 70 ft 0 kts 349°
2026-04-25 17:55 67.27093 14.39753 70 ft 1 kts 349°
2026-04-25 17:55 67.27106 14.39748 70 ft 2 kts 349°
2026-04-25 17:55 67.27130 14.39737 70 ft 5 kts 349°
2026-04-25 17:56 67.27168 14.39704 70 ft 4 kts 306°
2026-04-25 17:56 67.27175 14.39601 70 ft 6 kts 267°
2026-04-25 17:56 67.27171 14.39507 70 ft 0 kts 257°
2026-04-25 17:57 67.27158 14.39354 67 ft 35 kts 257°
2026-04-25 17:57 67.27042 14.37979 69 ft 115 kts 257°
2026-04-25 17:57 67.26807 14.35361 245 ft 166 kts 258°
2026-04-25 17:57 67.26716 14.34390 423 ft 171 kts 259°
2026-04-25 17:58 67.26457 14.29191 1833 ft 175 kts 266°
2026-04-25 17:58 67.26170 14.26044 2467 ft 187 kts 247°
2026-04-25 17:58 67.25307 14.23368 3145 ft 198 kts 224°
2026-04-25 17:58 67.24163 14.21072 3741 ft 217 kts 222°
2026-04-25 17:59 67.22897 14.18590 4520 ft 234 kts 222°
2026-04-25 17:59 67.21562 14.15980 5307 ft 249 kts 222°
2026-04-25 17:59 67.20118 14.13160 6069 ft 268 kts 221°
2026-04-25 17:59 67.18584 14.10175 6890 ft 284 kts 221°
2026-04-25 18:00 67.17502 14.08078 7622 ft 288 kts 221°
2026-04-25 18:00 67.15340 14.03904 9081 ft 295 kts 221°
2026-04-25 18:00 67.13680 14.00709 10106 ft 302 kts 221°
2026-04-25 18:00 67.11925 13.97367 10892 ft 318 kts 218°
2026-04-25 18:01 67.09863 13.94750 11596 ft 340 kts 201°
2026-04-25 18:01 67.07531 13.93010 12326 ft 357 kts 197°
2026-04-25 18:01 67.05032 13.91303 13034 ft 374 kts 197°
2026-04-25 18:01 67.02467 13.89545 13999 ft 383 kts 197°
2026-04-25 18:02 66.99865 13.87755 15023 ft 390 kts 197°
2026-04-25 18:02 66.97176 13.85903 16054 ft 396 kts 197°
2026-04-25 18:02 66.94495 13.84058 17107 ft 401 kts 197°
2026-04-25 18:02 66.91750 13.82172 18096 ft 406 kts 198°
2026-04-25 18:03 66.89006 13.79916 18906 ft 413 kts 205°
2026-04-25 18:03 66.86311 13.77135 19733 ft 419 kts 206°
2026-04-25 18:03 66.83552 13.74249 20446 ft 428 kts 206°
2026-04-25 18:03 66.80724 13.71301 21101 ft 437 kts 207°
2026-04-25 18:04 66.77860 13.68337 21872 ft 443 kts 205°
2026-04-25 18:04 66.75619 13.66517 22392 ft 452 kts 198°
2026-04-25 18:04 66.72385 13.65163 22961 ft 467 kts 187°
2026-04-25 18:04 66.69109 13.65186 23569 ft 477 kts 176°
2026-04-25 18:05 66.65752 13.66583 24176 ft 485 kts 166°
2026-04-25 18:05 66.62534 13.69289 24753 ft 491 kts 155°
2026-04-25 18:05 66.59396 13.73142 25365 ft 495 kts 153°
2026-04-25 18:05 66.56118 13.76440 25949 ft 502 kts 163°
2026-04-25 18:06 66.52701 13.78418 26571 ft 505 kts 173°
2026-04-25 18:06 66.49148 13.79122 27170 ft 507 kts 181°
2026-04-25 18:06 66.45572 13.78892 27723 ft 510 kts 187°
2026-04-25 18:06 66.42010 13.78032 28282 ft 513 kts 190°
2026-04-25 18:07 66.38442 13.76691 28841 ft 516 kts 194°
2026-04-25 18:07 66.34848 13.74973 29425 ft 518 kts 196°
2026-04-25 18:07 66.31327 13.73037 30095 ft 517 kts 197°
2026-04-25 18:07 66.27799 13.70937 30817 ft 515 kts 198°
2026-04-25 18:08 66.24261 13.68723 31485 ft 514 kts 199°
2026-04-25 18:08 66.20780 13.66454 31802 ft 515 kts 200°
2026-04-25 18:08 66.17295 13.64117 31848 ft 514 kts 200°
2026-04-25 18:09 66.10354 13.59339 31845 ft 510 kts 201°
2026-04-25 18:09 66.03403 13.54462 31818 ft 511 kts 201°
2026-04-25 18:10 65.96472 13.49564 31800 ft 514 kts 201°
2026-04-25 18:10 65.89584 13.44692 31818 ft 512 kts 201°
2026-04-25 18:11 65.82674 13.39814 31829 ft 514 kts 202°
2026-04-25 18:11 65.75742 13.34937 31840 ft 513 kts 200°
2026-04-25 18:12 65.68816 13.30085 31843 ft 515 kts 201°
2026-04-25 18:12 65.61848 13.25230 31840 ft 516 kts 201°
2026-04-25 18:13 65.54867 13.20391 31828 ft 517 kts 201°
2026-04-25 18:13 65.47807 13.15519 31847 ft 528 kts 201°
2026-04-25 18:14 65.40581 13.10562 32829 ft 532 kts 201°
2026-04-25 18:14 65.37781 13.08654 33352 ft 530 kts 200°
2026-04-25 18:14 65.34187 13.06206 33724 ft 531 kts 201°
2026-04-25 18:14 65.30649 13.03804 33776 ft 528 kts 200°
2026-04-25 18:15 65.23467 12.98949 33771 ft 526 kts 201°
2026-04-25 18:15 65.16314 12.94136 33800 ft 528 kts 201°
2026-04-25 18:16 65.09175 12.89362 33822 ft 527 kts 201°
2026-04-25 18:17 64.98496 12.82268 33828 ft 528 kts 201°
2026-04-25 18:17 64.91297 12.77519 33835 ft 528 kts 201°
2026-04-25 18:18 64.84185 12.72855 33831 ft 528 kts 201°
2026-04-25 18:18 64.76932 12.68122 33850 ft 530 kts 201°
2026-04-25 18:19 64.69752 12.63462 33837 ft 535 kts 201°
2026-04-25 18:19 64.66062 12.61073 33950 ft 546 kts 201°
2026-04-25 18:19 64.62389 12.58706 34478 ft 546 kts 201°
2026-04-25 18:19 64.58724 12.56357 35275 ft 540 kts 200°
2026-04-25 18:20 64.55087 12.54029 35732 ft 537 kts 200°
2026-04-25 18:20 64.51442 12.51702 35854 ft 536 kts 200°
2026-04-25 18:20 64.47832 12.49403 35880 ft 533 kts 200°
2026-04-25 18:21 64.40623 12.44829 35891 ft 532 kts 200°
2026-04-25 18:21 64.33408 12.40276 35903 ft 530 kts 200°
2026-04-25 18:22 64.26200 12.35749 35928 ft 535 kts 200°
2026-04-25 18:22 64.18935 12.31215 35931 ft 535 kts 199°
2026-04-25 18:23 64.11737 12.26747 35902 ft 532 kts 199°
2026-04-25 18:23 64.04581 12.22327 35888 ft 534 kts 199°
2026-04-25 18:24 63.97694 12.18096 35883 ft 534 kts 199°
2026-04-25 18:24 63.90836 12.13903 35885 ft 536 kts 199°
2026-04-25 18:25 63.83544 12.09469 35872 ft 538 kts 199°
2026-04-25 18:25 63.76395 12.05146 35879 ft 538 kts 199°
2026-04-25 18:26 63.69103 12.00761 35873 ft 535 kts 199°
2026-04-25 18:26 63.61758 11.96365 35872 ft 537 kts 199°
2026-04-25 18:27 63.54498 11.92042 35861 ft 540 kts 199°
2026-04-25 18:27 63.47143 11.87688 35849 ft 538 kts 199°
2026-04-25 18:28 63.39880 11.83411 35849 ft 536 kts 198°
2026-04-25 18:28 63.32354 11.81019 35859 ft 545 kts 182°
2026-04-25 18:29 63.20807 11.81566 35836 ft 560 kts 180°
2026-04-25 18:30 63.08709 11.82341 35847 ft 585 kts 180°
2026-04-25 18:30 63.04607 11.82613 35849 ft 587 kts 180°
2026-04-25 18:30 62.96373 11.83161 35859 ft 587 kts 179°
2026-04-25 18:31 62.88119 11.83713 35849 ft 586 kts 180°
2026-04-25 18:31 62.79909 11.84261 35823 ft 586 kts 180°
2026-04-25 18:32 62.71688 11.84808 35826 ft 585 kts 180°
2026-04-25 18:32 62.63450 11.85354 35840 ft 587 kts 180°
2026-04-25 18:33 62.55232 11.85896 35838 ft 588 kts 179°
2026-04-25 18:33 62.46920 11.86443 35854 ft 587 kts 180°
2026-04-25 18:34 62.39501 11.86927 35851 ft 586 kts 180°
2026-04-25 18:34 62.31265 11.87463 35864 ft 586 kts 180°
2026-04-25 18:35 62.23037 11.87995 35861 ft 589 kts 180°
2026-04-25 18:35 62.14772 11.88526 35868 ft 587 kts 180°
2026-04-25 18:36 62.06517 11.89054 35879 ft 588 kts 180°
2026-04-25 18:36 61.98239 11.89581 35885 ft 586 kts 180°
2026-04-25 18:37 61.90020 11.90100 35881 ft 586 kts 180°
2026-04-25 18:37 61.81753 11.90621 35842 ft 586 kts 180°
2026-04-25 18:38 61.73466 11.91138 35833 ft 592 kts 180°
2026-04-25 18:38 61.65183 11.91656 35819 ft 586 kts 181°
2026-04-25 18:39 61.57039 11.92159 35861 ft 589 kts 181°
2026-04-25 18:39 61.48695 11.92672 35855 ft 590 kts 180°
2026-04-25 18:40 61.40387 11.93182 35863 ft 588 kts 180°
2026-04-25 18:40 61.32146 11.93685 35880 ft 589 kts 181°
2026-04-25 18:41 61.23868 11.94186 35908 ft 589 kts 180°
2026-04-25 18:41 61.15601 11.94684 35902 ft 590 kts 180°
2026-04-25 18:42 61.10120 11.95013 35910 ft 591 kts 180°
2026-04-25 18:42 60.99026 11.95676 35915 ft 589 kts 180°
2026-04-25 18:43 60.90782 11.96167 35914 ft 588 kts 181°
2026-04-25 18:43 60.82555 11.96652 35911 ft 589 kts 180°
2026-04-25 18:44 60.75297 11.97078 35917 ft 592 kts 181°
2026-04-25 18:44 60.67175 11.97553 35920 ft 590 kts 180°
2026-04-25 18:45 60.58884 11.98036 35937 ft 589 kts 180°
2026-04-25 18:45 60.50610 11.98515 35947 ft 591 kts 181°
2026-04-25 18:46 60.42358 11.98991 35959 ft 589 kts 181°
2026-04-25 18:46 60.34140 11.99461 35955 ft 590 kts 180°
2026-04-25 18:47 60.25971 11.99928 35956 ft 587 kts 180°
2026-04-25 18:47 60.17757 12.00394 35955 ft 588 kts 181°
2026-04-25 18:48 60.09499 12.00859 35950 ft 590 kts 180°
2026-04-25 18:48 60.01221 12.01325 35946 ft 588 kts 181°
2026-04-25 18:49 59.92970 12.01786 35956 ft 588 kts 181°
2026-04-25 18:49 59.84699 12.02417 35936 ft 590 kts 178°
2026-04-25 18:50 59.76361 12.03503 35927 ft 591 kts 179°
2026-04-25 18:50 59.68083 12.04566 35925 ft 589 kts 178°
2026-04-25 18:51 59.62546 12.05265 35937 ft 592 kts 178°
2026-04-25 18:51 59.51485 12.06644 35922 ft 589 kts 178°
2026-04-25 18:52 59.43242 12.07659 35931 ft 589 kts 179°
2026-04-25 18:52 59.34981 12.08667 35926 ft 589 kts 179°
2026-04-25 18:53 59.26784 12.09662 35923 ft 588 kts 179°
2026-04-25 18:53 59.19062 12.10592 35927 ft 590 kts 179°
2026-04-25 18:54 59.07106 12.12026 35923 ft 587 kts 179°
2026-04-25 18:55 58.98843 12.13009 35922 ft 589 kts 179°
2026-04-25 18:55 58.90613 12.13984 35921 ft 589 kts 179°
2026-04-25 18:56 58.82361 12.14957 35900 ft 588 kts 179°
2026-04-25 18:56 58.74138 12.15922 35908 ft 588 kts 179°
2026-04-25 18:57 58.65847 12.16890 35916 ft 587 kts 179°
2026-04-25 18:57 58.57644 12.17843 35920 ft 589 kts 179°
2026-04-25 18:58 58.49397 12.18797 35935 ft 590 kts 179°
2026-04-25 18:58 58.37012 12.20222 35920 ft 587 kts 179°
2026-04-25 18:59 58.20548 12.22099 35928 ft 588 kts 179°
2026-04-25 19:00 58.08129 12.23505 35930 ft 587 kts 179°
2026-04-25 19:01 57.95816 12.24888 35928 ft 587 kts 179°
2026-04-25 19:01 57.87665 12.25800 35908 ft 584 kts 180°
2026-04-25 19:02 57.75362 12.27168 35890 ft 574 kts 180°
2026-04-25 19:02 57.71417 12.27608 35900 ft 562 kts 180°
2026-04-25 19:03 57.66176 12.28188 35884 ft 552 kts 180°
2026-04-25 19:03 57.59724 12.28896 34747 ft 555 kts 180°
2026-04-25 19:03 57.56611 12.29233 33916 ft 562 kts 180°
2026-04-25 19:04 57.48562 12.30103 32113 ft 589 kts 180°
2026-04-25 19:04 57.44463 12.30547 31054 ft 598 kts 180°
2026-04-25 19:05 57.36039 12.31466 29687 ft 592 kts 180°
2026-04-25 19:05 57.27800 12.32362 28568 ft 583 kts 179°
2026-04-25 19:05 57.23750 12.32800 27967 ft 580 kts 180°
2026-04-25 19:06 57.19675 12.33239 27348 ft 577 kts 180°
2026-04-25 19:06 57.11578 12.34149 26078 ft 571 kts 177°
2026-04-25 19:06 57.07659 12.35069 25463 ft 569 kts 174°
2026-04-25 19:07 56.99770 12.37146 24183 ft 562 kts 174°
2026-04-25 19:07 56.95877 12.38154 23567 ft 558 kts 174°
2026-04-25 19:08 56.88184 12.40110 22219 ft 549 kts 174°
2026-04-25 19:08 56.84500 12.41037 21811 ft 538 kts 174°
2026-04-25 19:09 56.73692 12.43725 19760 ft 495 kts 175°
2026-04-25 19:09 56.72550 12.44006 19546 ft 494 kts 174°
2026-04-25 19:09 56.63422 12.46237 17760 ft 484 kts 175°
2026-04-25 19:10 56.60079 12.47052 17079 ft 475 kts 175°
2026-04-25 19:10 56.56850 12.47838 16503 ft 453 kts 175°
2026-04-25 19:10 56.53750 12.48591 16072 ft 436 kts 175°
2026-04-25 19:10 56.50734 12.49319 15470 ft 433 kts 175°
2026-04-25 19:11 56.47704 12.50048 14845 ft 431 kts 175°
2026-04-25 19:11 56.44710 12.50767 14255 ft 427 kts 174°
2026-04-25 19:11 56.41768 12.51473 13689 ft 422 kts 174°
2026-04-25 19:11 56.38844 12.52173 13107 ft 418 kts 174°
2026-04-25 19:12 56.35934 12.52868 12521 ft 414 kts 174°
2026-04-25 19:12 56.33046 12.53556 11947 ft 409 kts 174°
2026-04-25 19:12 56.30228 12.54228 11507 ft 401 kts 174°
2026-04-25 19:12 56.27470 12.54885 11444 ft 383 kts 174°
2026-04-25 19:13 56.24834 12.55512 11347 ft 367 kts 174°
2026-04-25 19:13 56.22331 12.56106 11214 ft 355 kts 174°
2026-04-25 19:13 56.19890 12.56684 11071 ft 343 kts 174°
2026-04-25 19:13 56.18066 12.57001 10953 ft 333 kts 183°
2026-04-25 19:14 56.15830 12.56376 10812 ft 317 kts 199°
2026-04-25 19:14 56.15110 12.55996 10752 ft 316 kts 202°
2026-04-25 19:14 56.11616 12.53777 10454 ft 311 kts 205°
2026-04-25 19:14 56.09572 12.52393 10280 ft 310 kts 205°
2026-04-25 19:15 56.07509 12.50987 10108 ft 308 kts 205°
2026-04-25 19:15 56.05499 12.49621 9932 ft 301 kts 205°
2026-04-25 19:15 56.03553 12.48299 9750 ft 296 kts 205°
2026-04-25 19:15 56.01597 12.46969 9544 ft 296 kts 205°
2026-04-25 19:16 55.99627 12.45632 9351 ft 296 kts 205°
2026-04-25 19:16 55.97691 12.44319 9178 ft 295 kts 205°
2026-04-25 19:16 55.95754 12.43009 8992 ft 293 kts 205°
2026-04-25 19:16 55.93801 12.41699 8832 ft 293 kts 205°
2026-04-25 19:17 55.91880 12.40415 8675 ft 292 kts 205°
2026-04-25 19:17 55.89954 12.39133 8510 ft 291 kts 204°
2026-04-25 19:17 55.88034 12.37839 8270 ft 291 kts 205°
2026-04-25 19:17 55.86107 12.36535 7754 ft 298 kts 204°
2026-04-25 19:18 55.84132 12.35171 7280 ft 301 kts 205°
2026-04-25 19:18 55.82174 12.33801 7002 ft 297 kts 205°
2026-04-25 19:18 55.80222 12.32436 6659 ft 295 kts 205°
2026-04-25 19:18 55.78304 12.31087 6296 ft 295 kts 205°
2026-04-25 19:19 55.76357 12.29730 5949 ft 294 kts 205°
2026-04-25 19:19 55.74459 12.28396 5810 ft 285 kts 205°
2026-04-25 19:19 55.72613 12.27121 5770 ft 272 kts 205°
2026-04-25 19:19 55.72021 12.26718 5755 ft 268 kts 205°
2026-04-25 19:20 55.69190 12.24802 5685 ft 248 kts 205°
2026-04-25 19:20 55.67583 12.23719 5648 ft 235 kts 205°
2026-04-25 19:20 55.66027 12.23024 5575 ft 226 kts 180°
2026-04-25 19:20 55.64501 12.23675 5338 ft 222 kts 156°
2026-04-25 19:21 55.63059 12.24741 5052 ft 223 kts 155°
2026-04-25 19:21 55.60163 12.26909 4542 ft 221 kts 155°
2026-04-25 19:21 55.58728 12.27980 4308 ft 220 kts 155°
2026-04-25 19:22 55.57305 12.29076 4049 ft 219 kts 147°
2026-04-25 19:22 55.56084 12.30690 3761 ft 217 kts 135°
2026-04-25 19:22 55.53764 12.34127 3321 ft 213 kts 135°
2026-04-25 19:23 55.52593 12.35847 2949 ft 221 kts 135°
2026-04-25 19:23 55.50380 12.39163 2307 ft 229 kts 132°
2026-04-25 19:23 55.49513 12.41426 2019 ft 213 kts 97°
2026-04-25 19:24 55.49315 12.43833 1988 ft 195 kts 86°
2026-04-25 19:24 55.49477 12.46051 1979 ft 171 kts 51°
2026-04-25 19:24 55.51443 12.47959 1986 ft 160 kts 29°
2026-04-25 19:25 55.52968 12.50860 1676 ft 165 kts 20°
2026-04-25 19:25 55.53912 12.52100 1451 ft 169 kts 42°
2026-04-25 19:25 55.54702 12.53476 1238 ft 149 kts 31°
2026-04-25 19:26 55.55482 12.54605 1046 ft 139 kts 35°
2026-04-25 19:26 55.56222 12.55751 863 ft 140 kts 33°
2026-04-25 19:26 55.56968 12.56899 654 ft 142 kts 34°
2026-04-25 19:26 55.57722 12.58058 451 ft 142 kts 36°
2026-04-25 19:27 55.58487 12.59229 249 ft 143 kts 34°
2026-04-25 19:27 55.58743 12.59609 190 ft 146 kts 36°
2026-04-25 19:27 55.59995 12.61536 19 ft 123 kts 41°
2026-04-25 19:27 55.60545 12.62400 22 ft 83 kts 40°
2026-04-25 19:28 55.60883 12.62827 26 ft 34 kts 15°
2026-04-25 19:28 55.60958 12.62860 28 ft 0 kts 12°
2026-04-25 19:28 55.60975 12.62866 28 ft 7 kts 12°
2026-04-25 19:29 55.61069 12.62902 28 ft 18 kts 12°
2026-04-25 19:29 55.61200 12.63036 28 ft 24 kts 41°
2026-04-25 19:29 55.61342 12.63256 29 ft 28 kts 41°
2026-04-25 19:29 55.61503 12.63498 29 ft 31 kts 41°